Regional Weather Roundup
Issued by NWS

Home | Current Version | Previous Version | Graphics & Text | Print | Product List | Glossary On
Versions: 1 2 3 4 5 6 7 8 9 10 11 12 13 14 15 16 17 18 19 20 21 22 23 24 25 26 27 28 29 30 31 32 33 34 35 36 37 38 39 40 41 42 43 44 45 46 47 48 49 50
000
ASUS43 KLOT 031058
RWRIL

ILLINOIS REGIONAL WEATHER ROUNDUP
NATIONAL WEATHER SERVICE CHICAGO/ROMEOVILLE IL
500 AM CST TUE MAR 03 2015

NOTE: "FAIR" INDICATES FEW OR NO CLOUDS BELOW 12,000 FEET WITH NO
SIGNIFICANT WEATHER AND/OR OBSTRUCTIONS TO VISIBILITY.

* THESE STATIONS ARE NOT UNDER NWS QUALITY CONTROL. THEY ALSO MAY NOT
  REPORT WEATHER SUCH AS PRECIPITATION OR FOG.

ILZ001-002-007-009-015-016-024-031200-
NORTHWEST ILLINOIS

CITY           SKY/WX    TMP DP  RH WIND       PRES   REMARKS
MOLINE         FRZ RAIN  29  25  85 S12       29.90F FOG     WCI  19
$$

ILZ003-004-008-010-011-017-018-031200-
NORTH CENTRAL ILLINOIS

CITY           SKY/WX    TMP DP  RH WIND       PRES   REMARKS
ROCKFORD       NOT AVBL
$$

ILZ005-006-012>014-019>023-031200-
NORTHEAST ILLINOIS

CITY           SKY/WX    TMP DP  RH WIND       PRES   REMARKS
CHICAGO-OHARE  LGT SNOW  24  21  88 SE10      30.03F VSB 3/4 WCI  14
CHICAGO-MIDWAY NOT AVBL
AURORA         LGT SNOW  25  20  81 SE15      30.01F WCI  13
WAUKEGAN       LGT SNOW  25  21  85 S16       30.04S VSB 3/4 WCI  12
DUPAGE AIRPORT LGT SNOW  24  21  88 SE12      30.00F FOG     WCI  13
WHEELING       SNOW      24  22  91 SE9       30.05F VSB 1/2 WCI  14
NORTHERLY ISL    N/A     27  19  72 S8          N/A  WCI  19
$$

LMZ740>746-031200-
SOUTHERN LAKE MICHIGAN

STATION/POSITION SKY/WX   TEMP    WIND        PRES    VSBY  WAVE
                          AIR SEA DIR/SP/G                  HT/PER
                          (F)     (DEG/KT/KT) (MB)    (MI)  (FT/S)
WAUKEGAN HARBOR            28     180/ 35/ 72   N/A
HARRISON CRIB              28     170/ 17/ 21   N/A
BURNHAM HARBOR             27     160/  9/ 13   N/A
CALUMET HARBOR                                1017.5F
MICHIGAN CITY              26     130/ 10/ 15   N/A
$$

ILZ025>027-034>036-040-047-049-050-058-095>099-031200-
WEST-CENTRAL ILLINOIS

CITY           SKY/WX    TMP DP  RH WIND       PRES   REMARKS
QUINCY         CLOUDY    28  25  88 SE12      29.90F FOG     WCI  18
$$

ILZ028>032-037-038-041>044-048-051>054-059>061-031200-
CENTRAL ILLINOIS

CITY           SKY/WX    TMP DP  RH WIND       PRES   REMARKS
PEORIA         FRZ RAIN  30  25  80 S8        29.99F WCI  23
SPRINGFIELD    FRZ RAIN  29  24  82 SE12      29.98F WCI  19
TAYLORVILLE    NOT AVBL
$$

ILZ033-039-045-046-055>057-062-063-031200-
EAST-CENTRAL ILLINOIS

CITY           SKY/WX    TMP DP  RH WIND       PRES   REMARKS
MATTOON        CLOUDY    30  20  66 SE12      30.01F WCI  20
$$

ILZ079-100>102-031200-
SOUTHWEST ILLINOIS

CITY           SKY/WX    TMP DP  RH WIND       PRES   REMARKS
CAHOKIA*       CLOUDY    34  26  72 S7        29.98F WCI  28
$$

ILZ064>066-069>071-074>076-080>082-084>086-088>090-092>094-031200-
SOUTH-CENTRAL ILLINOIS

CITY           SKY/WX    TMP DP  RH WIND       PRES   REMARKS
CARBONDALE     CLOUDY    37  26  64 S9        30.04F WCI  30
$$

ILZ067-068-072-073-078-083-087-091-031200-
SOUTHEAST ILLINOIS

CITY           SKY/WX    TMP DP  RH WIND       PRES   REMARKS
$$

ABBREVIATIONS USED IN REMARKS
   TC - TEMPERATURE IN CELSIUS
  WCI - WIND CHILL INDEX
   HX - HEAT INDEX
  VSB - VISIBILITY
$$



USA.gov is the U.S. government's official web portal to all federal, state and local government web resources and services.